{"data":{"norad_id":58719,"epoch":"2026-05-24T18:36:44.778528Z","epoch_age_seconds":88268,"freshness":"FRESH","line1":"1 58719U 24002Q   26144.77551827 -.00000607  00000+0 -84099-5 0  9996","line2":"2 58719  53.1602 236.5736 0000126  53.2904 306.8109 15.30190833133662","mean_motion":15.30190833,"eccentricity":1.26e-5,"inclination_deg":53.1602,"raan_deg":236.5736,"arg_perigee_deg":53.2904,"mean_anomaly_deg":306.8109,"bstar":-8.4099e-6,"rev_number":13366,"period_min":94.105909468613,"perigee_km":475.15608798465,"apogee_km":475.32879314656,"semimajor_km":6853.3794405656,"source":"CELESTRAK","updated_at":"2026-05-25T13:38:18.717642Z"}}